Wappingers Falls, NY

2:36 AM EST on December 08, 2016 (GMT -0500)
Dutchess County

Weather History for KPOU - February, 2013

Change the Weather History Date:

Monday, February 25, 2013

  Actual Average Record
Temperature  
Mean Temperature 33 °F 31 °F  
Max Temperature 44 °F 42 °F 70 °F (1976)
Min Temperature 22 °F 20 °F -3 °F (1964)
Degree Days  
Heating Degree Days 32 34  
Month to date heating degree days 892 917  
Since 1 July heating degree days 4043 4469  
Cooling Degree Days 0 0  
Month to date cooling degree days 0 0  
Year to date cooling degree days 0 0  
Moisture  
Dew Point 25 °F    
Average Humidity 73    
Maximum Humidity 96    
Minimum Humidity 49    
Precipitation  
Precipitation 0.00 in 0.11 in 2.14 in (2010)
Month to date precipitation 0.79 2.35  
Year to date precipitation 2.84 5.43  
Sea Level Pressure  
Sea Level Pressure 30.12 in    
Wind  
Wind Speed 2 mph (North)    
Max Wind Speed 12 mph    
Max Gust Speed 17 mph    
Visibility 9 miles    
Events      
T = Trace of Precipitation, MM = Missing Value Source: NWS Daily Summary

Daily Weather History Graph

Daily Weather History Graph

Search for Another Location

Airport or City:

Trip Planner

Search our weather history database for the weather conditions in past years. The results will help you decide how hot, cold, wet, or windy it might be!

Date:

Astronomy

Feb. 25, 2013 Rise Set
Actual Time 6:36 AM EST 5:41 PM EST
Civil Twilight 6:08 AM EST 6:09 PM EST
Nautical Twilight 5:35 AM EST 6:41 PM EST
Astronomical Twilight 5:03 AM EST 7:13 PM EST
Moon 5:53 PM EST (2/25) 6:04 AM EST (2/25)
Length of Visible Light 12h 01m
Length of Day
11h 05m
Full, 100% of the Moon is Illuminated
Feb 25
Full
Feb 25
Full
Mar 4
Last Quarter
Mar 11
New
Mar 19
First Quarter

Hourly Weather History & Observations

Time (EST) Temp. Windchill Dew Point Humidity Pressure Visibility Wind Dir Wind Speed Gust Speed Precip Events Conditions
12:53 AM 26.1 °F - 24.1 °F 92% 29.99 in 8.0 mi Calm Calm - N/A   Clear
1:53 AM 24.1 °F - 23.0 °F 96% 30.00 in 5.0 mi Calm Calm - N/A   Clear
2:53 AM 24.1 °F - 21.0 °F 88% 30.01 in 6.0 mi Calm Calm - N/A   Clear
3:53 AM 24.1 °F - 21.9 °F 91% 30.02 in 6.0 mi Calm Calm - N/A   Clear
4:53 AM 23.0 °F - 19.9 °F 88% 30.04 in 6.0 mi Calm Calm - N/A   Clear
5:53 AM 23.0 °F - 19.9 °F 88% 30.06 in 6.0 mi Calm Calm - N/A   Clear
6:53 AM 23.0 °F - 21.0 °F 92% 30.08 in 10.0 mi Calm Calm - N/A   Scattered Clouds
7:53 AM 27.0 °F - 24.1 °F 89% 30.10 in 10.0 mi Calm Calm - N/A   Partly Cloudy
8:53 AM 32.0 °F - 25.0 °F 75% 30.11 in 8.0 mi Calm Calm - N/A   Partly Cloudy
9:53 AM 37.0 °F 34.5 °F 28.0 °F 70% 30.12 in 10.0 mi Variable 3.5 mph - N/A   Mostly Cloudy
10:53 AM 39.9 °F 36.7 °F 28.9 °F 65% 30.12 in 10.0 mi Variable 4.6 mph - N/A   Partly Cloudy
11:53 AM 41.0 °F 36.4 °F 27.0 °F 57% 30.12 in 10.0 mi NW 6.9 mph - N/A   Overcast
1:53 PM 43.0 °F 38.2 °F 26.1 °F 51% 30.12 in 10.0 mi NNE 8.1 mph - N/A   Mostly Cloudy
2:53 PM 44.1 °F 39.5 °F 27.0 °F 51% 30.12 in 10.0 mi NNE 8.1 mph - N/A   Overcast
3:53 PM 43.0 °F 39.5 °F 25.0 °F 49% 30.14 in 10.0 mi NW 5.8 mph - N/A   Overcast
4:53 PM 42.1 °F 38.4 °F 25.0 °F 51% 30.15 in 10.0 mi NNE 5.8 mph - N/A   Overcast
5:53 PM 39.9 °F 35.1 °F 26.1 °F 58% 30.17 in 10.0 mi North 6.9 mph - N/A   Overcast
6:53 PM 39.0 °F - 26.1 °F 60% 30.20 in 10.0 mi Calm Calm - N/A   Overcast
7:53 PM 39.0 °F - 25.0 °F 57% 30.20 in 10.0 mi Calm Calm - N/A   Overcast
8:53 PM 37.0 °F - 27.0 °F 67% 30.20 in 10.0 mi Calm Calm - N/A   Overcast
9:53 PM 36.0 °F - 28.9 °F 76% 30.22 in 10.0 mi Calm Calm - N/A   Overcast
10:53 PM 35.1 °F - 28.0 °F 76% 30.23 in 10.0 mi Calm Calm - N/A   Overcast
11:53 PM 34.0 °F - 28.0 °F 79% 30.22 in 9.0 mi Calm Calm - N/A   Overcast